Tracking 21155 objects as of 15-Aug-2020
HD Live streaming from Space Station
objects crossing your sky now

KOMPSAT

Track KOMPSAT now!
10-day predictions
KOMPSAT is classified as:


NORAD ID: 26032
Int'l Code: 1999-070A
Perigee: 667.4 km
Apogee: 673.3 km
Inclination: 98.0 °
Period: 98.0 minutes
Semi major axis: 7041 km
RCS: 2.132 m2 (large)
Launch date: December 21, 1999
Source: South Korea (SKOR)
Launch site: AIR FORCE WESTERN TEST RANGE (AFWTR)

Digital cartography of Korea and status of marine biology; satellite also released 3 dozen capsules of cremated remains.
aabbcc
Your satellite tracking list
Your tracking list is empty




NASA's NSSDC Master Catalog

Two Line Element Set (TLE):
1 26032U 99070A   20228.37066147  .00000101  00000-0  25270-4 0  9998
2 26032  98.0286 358.2869 0004168 189.7901 170.3221 14.69331838105539
Source of the keplerian elements: AFSPC